H1 CPF 2 NER 2022 2 7 9 038 01 glonass141 H2 1908801 9141 44850 2022 2 7 0 0 0 2022 2 10 23 45 0 900 1 1 0 0 0 1 H9 10 0 59617 0.00000 0 -25046189.655 4753743.752 689618.928 10 0 59617 900.00000 0 -24897728.760 4890276.115 -2529105.931 10 0 59617 1800.00000 0 -24361436.927 4907615.662 -5698641.665 10 0 59617 2700.00000 0 -23464197.125 4756251.669 -8757307.281 10 0 59617 3600.00000 0 -22244456.511 4393532.407 -11645540.989 10 0 59617 4500.00000 0 -20750612.024 3785730.281 -14307070.028 10 0 59617 5400.00000 0 -19038994.391 2909732.484 -16690017.685 10 0 59617 6300.00000 0 -17171535.365 1754283.576 -18747924.898 10 0 59617 7200.00000 0 -15213216.697 320725.482 -20440665.483 10 0 59617 8100.00000 0 -13229408.560 -1376798.192 -21735236.400 10 0 59617 9000.00000 0 -11283209.806 -3311683.905 -22606407.102 10 0 59617 9900.00000 0 -9432902.291 -5445742.892 -23037214.918 10 0 59617 10800.00000 0 -7729626.408 -7730573.212 -23019296.710 10 0 59617 11700.00000 0 -6215375.393 -10109372.307 -22553050.389 10 0 59617 12600.00000 0 -4921392.276 -12519114.457 -21647623.305 10 0 59617 13500.00000 0 -3867036.000 -14893002.152 -20320728.064 10 0 59617 14400.00000 0 -3059163.216 -17163088.773 -18598289.735 10 0 59617 15300.00000 0 -2492050.282 -19262962.707 -16513931.785 10 0 59617 16200.00000 0 -2147857.002 -21130380.489 -14108311.339 10 0 59617 17100.00000 0 -1997610.616 -22709738.836 -11428317.253 10 0 59617 18000.00000 0 -2002666.626 -23954282.208 -8526147.381 10 0 59617 18900.00000 0 -2116582.789 -24827953.928 -5458283.720 10 0 59617 19800.00000 0 -2287325.393 -25306813.995 -2284386.081 10 0 59617 20700.00000 0 -2459712.980 -25379965.197 933873.331 10 0 59617 21600.00000 0 -2577993.009 -25049949.958 4134011.239 10 0 59617 22500.00000 0 -2588441.664 -24332602.605 7253946.638 10 0 59617 23400.00000 0 -2441876.446 -23256364.883 10233202.401 10 0 59617 24300.00000 0 -2095975.333 -21861094.554 13014071.824 10 0 59617 25200.00000 0 -1517304.725 -20196418.064 15542727.976 10 0 59617 26100.00000 0 -682971.028 -18319697.117 17770255.017 10 0 59617 27000.00000 0 418173.338 -16293694.349 19653582.582 10 0 59617 27900.00000 0 1784820.008 -14184035.410 21156306.430 10 0 59617 28800.00000 0 3403020.652 -12056572.634 22249380.731 10 0 59617 29700.00000 0 5246537.060 -9974758.987 22911669.987 10 0 59617 30600.00000 0 7277711.627 -7997140.188 23130351.024 10 0 59617 31500.00000 0 9448823.189 -6175067.808 22901158.098 10 0 59617 32400.00000 0 11703873.403 -4550726.844 22228466.844 10 0 59617 33300.00000 0 13980731.275 -3155558.333 21125215.383 10 0 59617 34200.00000 0 16213548.513 -2009141.522 19612663.617 10 0 59617 35100.00000 0 18335347.201 -1118581.282 17719994.453 10 0 59617 36000.00000 0 20280673.753 -478425.842 15483763.364 10 0 59617 36900.00000 0 21988209.826 -71118.187 12947205.542 10 0 59617 37800.00000 0 23403232.108 132037.647 10159412.484 10 0 59617 38700.00000 0 24479818.495 169435.590 7174392.563 10 0 59617 39600.00000 0 25182708.048 87312.087 4050032.650 10 0 59617 40500.00000 0 25488736.047 -62445.895 846980.138 10 0 59617 41400.00000 0 25387782.824 -224736.903 -2372533.411 10 0 59617 42300.00000 0 24883195.160 -343821.841 -5545903.963 10 0 59617 43200.00000 0 23991661.143 -365931.853 -8611378.144 10 0 59617 44100.00000 0 22742542.453 -241795.751 -11509263.243 10 0 59617 45000.00000 0 21176691.112 71021.478 -14183099.476 10 0 59617 45900.00000 0 19344799.743 606069.830 -16580770.628 10 0 59617 46800.00000 0 17305354.286 1386343.711 -18655530.368 10 0 59617 47700.00000 0 15122275.213 2423062.179 -20366923.183 10 0 59617 48600.00000 0 12862346.497 3714953.374 -21681581.224 10 0 59617 49500.00000 0 10592540.567 5248075.056 -22573880.948 10 0 59617 50400.00000 0 8377351.904 6996180.183 -23026446.344 10 0 59617 51300.00000 0 6276251.304 8921613.282 -23030488.833 10 0 59617 52200.00000 0 4341367.524 10976700.799 -22585977.226 10 0 59617 53100.00000 0 2615493.263 13105577.455 -21701634.615 10 0 59617 54000.00000 0 1130498.375 15246372.228 -20394762.563 10 0 59617 54900.00000 0 -93784.204 17333662.321 -18690896.383 10 0 59617 55800.00000 0 -1050154.440 19301092.010 -16623298.715 10 0 59617 56700.00000 0 -1744099.852 21084046.432 -14232301.787 10 0 59617 57600.00000 0 -2193308.558 22622268.042 -11564511.782 10 0 59617 58500.00000 0 -2426663.319 23862305.910 -8671891.508 10 0 59617 59400.00000 0 -2482761.206 24759695.305 -5610739.984 10 0 59617 60300.00000 0 -2408023.449 25280776.486 -2440589.500 10 0 59617 61200.00000 0 -2254477.109 25404076.984 776957.530 10 0 59617 62100.00000 0 -2077303.906 25121200.280 3979428.736 10 0 59617 63000.00000 0 -1932260.998 24437184.691 7104695.165 10 0 59617 63900.00000 0 -1873083.421 23370318.619 10092174.010 10 0 59617 64800.00000 0 -1948978.273 21951420.956 12883997.391 10 0 59617 65700.00000 0 -2202316.433 20222617.911 15426125.008 10 0 59617 66600.00000 0 -2666618.808 18235667.956 17669379.656 10 0 59617 67500.00000 0 -3364921.600 16049905.316 19570386.708 10 0 59617 68400.00000 0 -4308588.894 13729887.768 21092400.603 10 0 59617 69300.00000 0 -5496622.231 11342846.041 22206003.637 10 0 59617 70200.00000 0 -6915496.183 8956039.963 22889664.885 10 0 59617 71100.00000 0 -8539527.386 6634129.850 23130149.615 10 0 59617 72000.00000 0 -10331762.488 4436670.795 22922772.099 10 0 59617 72900.00000 0 -12245349.345 2415832.178 22271487.415 10 0 59617 73800.00000 0 -14225335.999 614435.450 21188820.437 10 0 59617 74700.00000 0 -16210824.271 -935609.634 19695632.941 10 0 59617 75600.00000 0 -18137390.159 -2214406.487 17820732.393 10 0 59617 76500.00000 0 -19939671.894 -3214665.758 15600328.760 10 0 59617 77400.00000 0 -21554019.055 -3941767.559 13077348.381 10 0 59617 78300.00000 0 -22921093.117 -4413289.393 10300616.697 10 0 59617 79200.00000 0 -23988311.136 -4658019.374 7323924.181 10 0 59617 80100.00000 0 -24712030.045 -4714495.908 4204992.457 10 0 59617 81000.00000 0 -25059379.358 -4629135.030 1004359.816 10 0 59617 81900.00000 0 -25009664.177 -4454024.261 -2215792.723 10 0 59617 82800.00000 0 -24555278.087 -4244476.282 -5392851.875 10 0 59617 83700.00000 0 -23702085.937 -4056446.375 -8464995.185 10 0 59617 84600.00000 0 -22469258.789 -3943923.782 -11372402.215 10 0 59617 85500.00000 0 -20888566.528 -3956408.605 -14058429.192 10 0 59618 0.00000 0 -19003156.914 -4136582.561 -16470722.992 10 0 59618 900.00000 0 -16865870.459 -4518273.999 -18562252.919 10 0 59618 1800.00000 0 -14537164.116 -5124804.692 -20292235.943 10 0 59618 2700.00000 0 -12082727.373 -5967790.381 -21626940.929 10 0 59618 3600.00000 0 -9570893.266 -7046447.068 -22540352.265 10 0 59618 4500.00000 0 -7069952.101 -8347433.763 -23014680.901 10 0 59618 5400.00000 0 -4645480.707 -9845239.385 -23040712.489 10 0 59618 6300.00000 0 -2357799.035 -11503098.363 -22617985.829 10 0 59618 7200.00000 0 -259660.480 -13274396.851 -21754798.319 10 0 59618 8100.00000 0 1605727.992 -15104510.672 -20468038.601 10 0 59618 9000.00000 0 3206273.876 -16932997.768 -18782849.996 10 0 59618 9900.00000 0 4522090.818 -18696052.757 -16732131.791 10 0 59618 10800.00000 0 5546069.906 -20329120.257 -14355888.607 10 0 59618 11700.00000 0 6283908.472 -21769556.855 -11700441.112 10 0 59618 12600.00000 0 6753597.387 -22959229.558 -8817514.178 10 0 59618 13500.00000 0 6984390.716 -23846941.480 -5763220.962 10 0 59618 14400.00000 0 7015303.442 -24390582.872 -2596963.427 10 0 59618 15300.00000 0 6893202.740 -24558917.380 619728.499 10 0 59618 16200.00000 0 6670575.244 -24332929.047 3824395.889 10 0 59618 17100.00000 0 6403066.135 -23706674.252 6954864.191 10 0 59618 18000.00000 0 6146895.044 -22687603.723 9950447.065 10 0 59618 18900.00000 0 5956258.477 -21296342.057 12753117.399 10 0 59618 19800.00000 0 5880828.574 -19565934.738 15308623.195 10 0 59618 20700.00000 0 5963453.459 -17540594.805 17567527.307 10 0 59618 21600.00000 0 6238155.652 -15274001.935 19486151.990 10 0 59618 22500.00000 0 6728512.169 -12827224.666 21027411.216 10 0 59618 23400.00000 0 7446483.857 -10266351.854 22161515.937 10 0 59618 24300.00000 0 8391742.784 -7659930.869 22866540.043 10 0 59618 25200.00000 0 9551525.966 -5076317.489 23128837.186 10 0 59618 26100.00000 0 10901021.978 -2581045.966 22943301.328 10 0 59618 27000.00000 0 12404275.265 -234326.562 22313466.423 10 0 59618 27900.00000 0 14015571.715 1911227.443 21251443.332 10 0 59618 28800.00000 0 15681249.232 3812550.469 19777694.755 10 0 59618 29700.00000 0 17341859.510 5437673.452 17920651.622 10 0 59618 30600.00000 0 18934592.475 6766807.340 15716177.119 10 0 59618 31500.00000 0 20395863.564 7792916.702 13206887.320 10 0 59618 32400.00000 0 21663956.777 8521759.805 10441340.008 10 0 59618 33300.00000 0 22681613.470 8971393.474 7473105.964 10 0 59618 34200.00000 0 23398458.391 9171163.230 4359739.578 10 0 59618 35100.00000 0 23773160.638 9160220.954 1161667.858 10 0 59618 36000.00000 0 23775237.672 8985632.263 -2058981.063 10 0 59618 36900.00000 0 23386425.076 8700153.472 -5239587.094 10 0 59618 37800.00000 0 22601552.665 8359772.310 -8318261.173 10 0 59618 38700.00000 0 21428888.244 8021117.049 -11235057.562 10 0 59618 39600.00000 0 19889932.773 7738844.575 -13933150.815 10 0 59618 40500.00000 0 18018673.966 7563119.203 -16359953.459 10 0 59618 41400.00000 0 15860328.426 7537290.401 -18468151.527 10 0 59618 42300.00000 0 13469624.264 7695869.151 -20216636.710 10 0 59618 43200.00000 0 10908695.716 8062890.107 -21571316.167 10 0 59618 44100.00000 0 8244677.723 8650730.133 -22505783.608 10 0 59618 45000.00000 0 5547101.269 9459434.343 -23001838.124 10 0 59618 45900.00000 0 2885198.500 10476579.045 -23049840.517 10 0 59618 46800.00000 0 325230.358 11677678.053 -22648900.187 10 0 59618 47700.00000 0 -2072051.562 13027115.633 -21806889.079 10 0 59618 48600.00000 0 -4253703.221 14479566.907 -20540282.728 10 0 59618 49500.00000 0 -6176550.982 15981845.826 -18873831.836 10 0 59618 50400.00000 0 -7808737.932 17475102.575 -16840071.270 10 0 59618 51300.00000 0 -9130790.389 18897277.519 -14478676.558 10 0 59618 52200.00000 0 -10136161.665 20185707.935 -11835681.000 10 0 59618 53100.00000 0 -10831232.256 21279777.303 -8962569.370 10 0 59618 54000.00000 0 -11234768.747 22123495.301 -5915266.568 10 0 59618 54900.00000 0 -11376866.562 22667899.697 -2753041.645 10 0 59618 55800.00000 0 -11297423.268 22873178.989 462650.637 10 0 59618 56700.00000 0 -11044209.012 22710426.779 3669367.554 10 0 59618 57600.00000 0 -10670617.257 22162954.559 6804891.733 10 0 59618 58500.00000 0 -10233192.023 21227108.279 9808436.055 10 0 59618 59400.00000 0 -9789036.979 19912555.229 12621816.861 10 0 59618 60300.00000 0 -9393215.949 18242029.725 15190573.049 10 0 59618 61200.00000 0 -9096254.436 16250548.805 17465009.989 10 0 59618 62100.00000 0 -8941846.952 13984131.027 19401149.110 10 0 59618 63000.00000 0 -8964865.965 11498071.620 20961566.011 10 0 59618 63900.00000 0 -9189755.341 8854845.437 22116102.174 10 0 59618 64800.00000 0 -9629375.064 6121723.829 22842437.883 10 0 59618 65700.00000 0 -10284345.276 3368203.096 23126516.444 10 0 59618 66600.00000 0 -11142917.053 663349.599 22962812.394 10 0 59618 67500.00000 0 -12181375.743 -1926830.205 22354439.024 10 0 59618 68400.00000 0 -13364960.859 -4341887.719 21313093.174 10 0 59618 69300.00000 0 -14649265.281 -6529196.221 19858837.958 10 0 59618 70200.00000 0 -15982056.749 -8445888.538 18019726.742 10 0 59618 71100.00000 0 -17305447.099 -10060389.104 15831274.421 10 0 59618 72000.00000 0 -18558319.909 -11353477.325 13335784.805 10 0 59618 72900.00000 0 -19678916.117 -12318838.401 10581545.624 10 0 59618 73800.00000 0 -20607470.039 -12963078.652 7621905.222 10 0 59618 74700.00000 0 -21288785.346 -13305204.473 4514247.743 10 0 59618 75600.00000 0 -21674642.505 -13375586.538 1318885.711 10 0 59618 76500.00000 0 -21725935.502 -13214452.514 -1902108.956 10 0 59618 77400.00000 0 -21414446.531 -12869971.590 -5086112.761 10 0 59618 78300.00000 0 -20724182.192 -12396011.773 -8171173.452 10 0 59618 79200.00000 0 -19652212.891 -11849665.028 -11097223.381 10 0 59618 80100.00000 0 -18208978.131 -11288645.599 -13807258.717 10 0 59618 81000.00000 0 -16418042.927 -10768672.526 -16248460.535 10 0 59618 81900.00000 0 -14315313.900 -10340948.250 -18373234.850 10 0 59618 82800.00000 0 -11947746.693 -10049841.272 -20140150.257 10 0 59618 83700.00000 0 -9371598.001 -9930872.145 -21514754.121 10 0 59618 84600.00000 0 -6650294.799 -10009089.134 -22470250.781 10 0 59618 85500.00000 0 -3852009.781 -10297903.183 -22988028.124 10 0 59619 0.00000 0 -1047044.491 -10798432.109 -23058022.109 10 0 59619 900.00000 0 1694872.022 -11499382.514 -22678912.105 10 0 59619 1800.00000 0 4307252.377 -12377473.892 -21858143.368 10 0 59619 2700.00000 0 6729381.678 -13398387.902 -20611776.617 10 0 59619 3600.00000 0 8908600.873 -14518201.877 -18964167.810 10 0 59619 4500.00000 0 10802249.471 -15685245.883 -16947484.912 10 0 59619 5400.00000 0 12379187.215 -16842304.388 -14601071.585 10 0 59619 6300.00000 0 13620832.520 -17929069.065 -11970670.754 10 0 59619 7200.00000 0 14521675.866 -18884738.610 -9107523.901 10 0 59619 8100.00000 0 15089248.740 -19650655.359 -6067364.355 10 0 59619 9000.00000 0 15343551.670 -20172867.085 -2909324.894 10 0 59619 9900.00000 0 15315967.664 -20404505.701 305218.215 10 0 59619 10800.00000 0 15047709.071 -20307882.598 3513841.668 10 0 59619 11700.00000 0 14587865.198 -19856212.485 6654288.239 10 0 59619 12600.00000 0 13991134.752 -19034893.720 9665672.723 10 0 59619 13500.00000 0 13315339.713 -17842291.677 12489657.257 10 0 59619 14400.00000 0 12618826.025 -16289992.662 15071573.570 10 0 59619 15300.00000 0 11957860.859 -14402518.307 17361471.062 10 0 59619 16200.00000 0 11384135.628 -12216512.476 19315071.425 10 0 59619 17100.00000 0 10942479.064 -9779434.511 20894612.549 10 0 59619 18000.00000 0 10668875.526 -7147812.796 22069566.699 10 0 59619 18900.00000 0 10588870.721 -4385130.339 22817220.419 10 0 59619 19800.00000 0 10716430.880 -1559428.812 23123106.186 10 0 59619 20700.00000 0 11053302.583 1259271.049 22981278.307 10 0 59619 21600.00000 0 11588899.936 4001627.688 22394428.331 10 0 59619 22500.00000 0 12300724.055 6601607.388 21373837.776 10 0 59619 23400.00000 0 13155298.065 8998976.159 19939168.678 10 0 59619 24300.00000 0 14109579.544 11141553.222 18118095.193 10 0 59619 25200.00000 0 15112792.599 12987133.835 15945782.145 10 0 59619 26100.00000 0 16108604.158 14505002.394 13464219.199 10 0 59619 27000.00000 0 17037554.430 15676973.300 10721422.023 10 0 59619 27900.00000 0 17839640.449 16497916.320 7770514.429 10 0 59619 28800.00000 0 18456944.544 16975744.198 4668708.098 10 0 59619 29700.00000 0 18836197.111 17130862.733 1476198.780 10 0 59619 30600.00000 0 18931165.103 16995105.987 -1745000.168 10 0 59619 31500.00000 0 18704764.386 16610201.046 -4932264.180 10 0 59619 32400.00000 0 18130805.289 16025826.922 -8023580.093 10 0 59619 33300.00000 0 17195295.753 15297349.595 -10958760.497 10 0 59619 34200.00000 0 15897245.043 14483329.231 -13680625.154 10 0 59619 35100.00000 0 14248932.033 13642905.672 -16136125.464 10 0 59619 36000.00000 0 12275624.767 12833173.561 -18277388.993 10 0 59619 36900.00000 0 10014761.431 12106659.160 -20062662.606 10 0 59619 37800.00000 0 7514625.732 11509006.565 -21457135.049 10 0 59619 38700.00000 0 4832571.214 11076972.083 -22433622.294 10 0 59619 39600.00000 0 2032868.312 10836812.317 -22973101.831 10 0 59619 40500.00000 0 -815736.194 10803134.609 -23065085.335 10 0 59619 41400.00000 0 -3642645.511 10978258.669 -22707822.425 10 0 59619 42300.00000 0 -6378115.231 11352116.344 -21908331.669 10 0 59619 43200.00000 0 -8955919.140 11902693.482 -20682258.538 10 0 59619 44100.00000 0 -11315867.404 12596994.746 -19053563.383 10 0 59619 45000.00000 0 -13406072.312 13392489.961 -17054046.003 10 0 59619 45900.00000 0 -15184867.774 14238980.085 -14722716.560 10 0 59619 46800.00000 0 -16622303.359 15080803.159 -12105025.672 10 0 59619 47700.00000 0 -17701151.746 15859286.154 -9251969.387 10 0 59619 48600.00000 0 -18417389.153 16515338.354 -6219087.171 10 0 59619 49500.00000 0 -18780130.607 16992076.054 -3065373.168 10 0 59619 50400.00000 0 -18811024.893 17237367.222 147877.267 10 0 59619 51300.00000 0 -18543136.824 17206188.432 3358262.653 10 0 59619 52200.00000 0 -18019365.913 16862694.588 6503488.359 10 0 59619 53100.00000 0 -17290469.844 16181914.378 9522573.515 10 0 59619 54000.00000 0 -16412777.278 15151000.365 12357028.424 10 0 59619 54900.00000 0 -15445687.259 13769981.568 14951980.006 10 0 59619 55800.00000 0 -14449060.657 12051987.149 17257223.970 10 0 59619 56700.00000 0 -13480613.270 10022932.021 19228184.408 10 0 59619 57600.00000 0 -12593419.596 7720677.477 20826763.465 10 0 59619 58500.00000 0 -11833630.941 5193701.282 22022065.921 10 0 59619 59400.00000 0 -11238502.449 2499331.724 22790986.053 10 0 59619 60300.00000 0 -10834810.543 -298382.293 23118646.653 10 0 59619 61200.00000 0 -10637726.055 -3131078.232 22998682.600 10 0 59619 62100.00000 0 -10650189.516 -5928666.080 22433364.127 10 0 59619 63000.00000 0 -10862814.418 -8621988.489 21433557.433 10 0 59619 63900.00000 0 -11254322.697 -11145446.475 20018523.059 10 0 59619 64800.00000 0 -11792494.748 -13439483.622 18215555.112 10 0 59619 65700.00000 0 -12435595.103 -15452827.131 16059467.078 10 0 59619 66600.00000 0 -13134215.074 -17144393.525 13591932.814 10 0 59619 67500.00000 0 -13833456.140 -18484780.359 10860693.917 10 0 59619 68400.00000 0 -14475363.280 -19457281.856 7918647.339 10 0 59619 69300.00000 0 -15001506.461 -20058385.786 4822829.732 10 0 59619 70200.00000 0 -15355601.735 -20297730.373 1633317.297 10 0 59619 71100.00000 0 -15486061.015 -20197522.428 -1587938.096 10 0 59619 72000.00000 0 -15348362.057 -19791440.579 -4778313.878 10 0 59619 72900.00000 0 -14907137.120 -19123069.375 -7875739.138 10 0 59619 73800.00000 0 -14137890.341 -18243930.056 -10819909.923 10 0 59619 74700.00000 0 -13028269.204 -17211191.170 -13553472.806 10 0 59619 75600.00000 0 -11578834.282 -16085156.092 -16023152.654 10 0 59619 76500.00000 0 -9803292.628 -14926634.158 -18180801.534 10 0 59619 77400.00000 0 -7728183.037 -13794307.277 -19984347.237 10 0 59619 78300.00000 0 -5392024.711 -12742204.062 -21398622.135 10 0 59619 79200.00000 0 -2843963.674 -11817388.948 -22396055.561 10 0 59619 80100.00000 0 -141972.772 -11057964.486 -22957215.764 10 0 59619 81000.00000 0 2649320.077 -10491471.558 -23071190.698 10 0 59619 81900.00000 0 5461084.959 -10133755.091 -22735800.197 10 0 59619 82800.00000 0 8222921.965 -9988342.997 -21957635.524 10 0 59619 83700.00000 0 10865562.334 -10046364.028 -20751925.792 10 0 59619 84600.00000 0 13323526.103 -10287007.277 -19142234.184 10 0 59619 85500.00000 0 15537625.389 -10678502.966 -17159990.340 10 0 59620 0.00000 0 17457209.127 -11179581.941 -14843868.755 10 0 59620 900.00000 0 19042057.077 -11741351.322 -12239024.548 10 0 59620 1800.00000 0 20263842.368 -12309505.156 -9396205.401 10 0 59620 2700.00000 0 21107106.180 -12826776.410 -6370753.497 10 0 59620 3600.00000 0 21569702.715 -13235525.005 -3221520.703 10 0 59620 4500.00000 0 21662698.760 -13480351.969 -9717.720 10 0 59620 5400.00000 0 21409733.873 -13510628.615 3202279.516 10 0 59620 6300.00000 0 20845870.147 -13282833.656 6352142.527 10 0 59620 7200.00000 0 20015981.730 -12762599.570 9378798.057 10 0 59620 8100.00000 0 18972753.334 -11926382.114 12223607.494 10 0 59620 9000.00000 0 17774372.955 -10762682.901 14831495.383 10 0 59620 9900.00000 0 16482016.303 -9272773.930 17152005.672 10 0 59620 10800.00000 0 15157228.770 -7470893.845 19140266.297 10 0 59620 11700.00000 0 13859314.194 -5383907.529 20757844.600 10 0 59620 12600.00000 0 12642839.044 -3050442.944 21973478.346 10 0 59620 13500.00000 0 11555355.332 -519540.343 22763669.564 10 0 59620 14400.00000 0 10635436.112 2151131.188 23113130.960 10 0 59620 15300.00000 0 9911104.461 4897417.240 23015077.200 10 0 59620 16200.00000 0 9398720.452 7651094.524 22471356.051 10 0 59620 17100.00000 0 9102371.832 10342462.089 21492416.928 10 0 59620 18000.00000 0 9013793.496 12903001.732 20097117.135 10 0 59620 18900.00000 0 9112819.153 15267999.168 18312368.742 10 0 59620 19800.00000 0 9368346.671 17379018.728 16172631.720 10 0 59620 20700.00000 0 9739777.390 19186129.794 13719261.778 10 0 59620 21600.00000 0 10178869.819 20649793.075 10999723.968 10 0 59620 22500.00000 0 10631930.667 21742328.271 8066685.798 10 0 59620 23400.00000 0 11042251.614 22448901.569 4977006.240 10 0 59620 24300.00000 0 11352689.444 22767991.126 1790639.242 10 0 59620 25200.00000 0 11508280.502 22711310.288 -1430527.501 10 0 59620 26100.00000 0 11458778.416 22303190.926 -4623876.026 10 0 59620 27000.00000 0 11161006.685 21579452.147 -7727280.132 10 0 59620 27900.00000 0 10580925.062 20585801.489 -10680321.572 10 0 59620 28800.00000 0 9695320.475 19375835.726 -13425475.727 10 0 59620 29700.00000 0 8493048.915 18008725.674 -15909242.636 10 0 59620 30600.00000 0 6975773.606 16546682.954 -18083200.302 10 0 59620 31500.00000 0 5158166.275 15052316.159 -19904958.604 10 0 59620 32400.00000 0 3067561.102 13585988.578 -21338994.459 10 0 59620 33300.00000 0 743074.227 12203289.541 -22357351.253 10 0 59620 34200.00000 0 -1765775.412 10952726.548 -22940188.451 10 0 59620 35100.00000 0 -4400887.077 9873735.756 -23076170.480 10 0 59620 36000.00000 0 -7097765.430 8995094.682 -22762687.281 10 0 59620 36900.00000 0 -9787982.709 8333803.745 -22005902.343 10 0 59620 37800.00000 0 -12401813.134 7894483.119 -20820627.561 10 0 59620 38700.00000 0 -14870929.583 7669309.400 -19230027.680 10 0 59620 39600.00000 0 -17131049.837 7638493.564 -17265160.531 10 0 59620 40500.00000 0 -19124422.062 7771278.666 -14964362.526 10 0 59620 41400.00000 0 -20802046.003 8027413.629 -12372491.915 10 0 59620 42300.00000 0 -22125537.548 8359039.388 -9540045.266 10 0 59620 43200.00000 0 -23068559.601 8712906.153 -6522165.057 10 0 59620 44100.00000 0 -23617760.568 9032826.745 -3377558.442 10 0 59620 45000.00000 0 -23773182.536 9262261.135 -167349.070 10 0 59620 45900.00000 0 -23548123.872 9346922.017 3046115.046 10 0 59620 46800.00000 0 -22968463.773 9237290.734 6200473.915 10 0 59620 47700.00000 0 -22071478.863 8890936.984 9234564.191 10 0 59620 48600.00000 0 -20904203.230 8274544.431 12089600.595 10 0 59620 49500.00000 0 -19521401.813 7365556.935 14710307.471 10 0 59620 50400.00000 0 -17983243.015 6153376.388 17045979.075 10 0 59620 51300.00000 0 -16352768.458 4640061.986 19051449.065 10 0 59620 52200.00000 0 -14693265.562 2840501.634 20687951.644 10 0 59620 53100.00000 0 -13065652.198 782048.064 21923858.942 10 0 59620 54000.00000 0 -11525981.496 -1496365.849 22735281.800 10 0 59620 54900.00000 0 -10123169.665 -3945596.777 23106523.558 10 0 59620 55800.00000 0 -8897040.174 -6508090.026 23030379.033 10 0 59620 56700.00000 0 -7876764.456 -9120035.068 22508273.534 10 0 59620 57600.00000 0 -7079762.982 -11713789.977 21550239.361 10 0 59620 58500.00000 0 -6511111.730 -14220476.128 20174729.905 10 0 59620 59400.00000 0 -6163478.353 -16572637.371 18408274.199 10 0 59620 60300.00000 0 -6017590.650 -18706854.950 16284977.391 10 0 59620 61200.00000 0 -6043218.040 -20566210.625 13845875.434 10 0 59620 62100.00000 0 -6200625.398 -22102496.313 11138154.978 10 0 59620 63000.00000 0 -6442438.823 -23278078.427 8214252.014 10 0 59620 63900.00000 0 -6715845.417 -24067338.756 5130845.575 10 0 59620 64800.00000 0 -6965034.735 -24457631.089 1947764.966 10 0 59620 65700.00000 0 -7133778.866 -24449712.530 -1273168.809 10 0 59620 66600.00000 0 -7168041.728 -24057630.397 -4469345.012 10 0 59620 67500.00000 0 -7018506.349 -23308068.428 -7578584.868 10 0 59620 68400.00000 0 -6642911.854 -22239178.951 -10540358.638 10 0 59620 69300.00000 0 -6008099.605 -20898949.580 -13296973.342 10 0 59620 70200.00000 0 -5091679.932 -19343172.932 -15794707.021 10 0 59620 71100.00000 0 -3883246.901 -17633104.922 -17984866.323 10 0 59620 72000.00000 0 -2385087.689 -15832910.560 -19824745.732 10 0 59620 72900.00000 0 -612354.672 -14007005.299 -21278468.917 10 0 59620 73800.00000 0 1407308.866 -12217404.320 -22317695.127 10 0 59620 74700.00000 0 3634675.063 -10521191.847 -22922176.387 10 0 59620 75600.00000 0 6020332.981 -8968217.209 -23080154.454 10 0 59620 76500.00000 0 8506527.330 -7599114.551 -22788589.734 10 0 59620 77400.00000 0 11029357.802 -6443729.234 -22053217.820 10 0 59620 78300.00000 0 13521247.253 -5520016.424 -20888432.814 10 0 59620 79200.00000 0 15913575.536 -4833457.185 -19317000.014 10 0 59620 80100.00000 0 18139368.738 -4377015.389 -17369604.002 10 0 59620 81000.00000 0 20135931.371 -4131635.620 -15084241.452 10 0 59620 81900.00000 0 21847311.498 -4067259.349 -12505471.006 10 0 59620 82800.00000 0 23226495.829 -4144314.677 -9683535.561 10 0 59620 83700.00000 0 24237243.460 -4315614.922 -6673374.739 10 0 59620 84600.00000 0 24855482.224 -4528584.116 -3533547.509 10 0 59620 85500.00000 0 25070210.227 -4727713.866 -325086.771 99